PBO Station Position Time Series. Reference Frame : NAM14
Format Version,1.1.0
4-character ID,NYLV
Station name,Lowville
Begin Date, 2006-04-22
End Date, 2019-10-07
Release Date, 2019-10-08
Reference position, 43.7964658794 North Latitude, -75.4854368737 East Longitude, 240.41327 meters elevation,
Date, North (mm), East (mm), Vertical (mm), North Std. Deviation (mm), East Std. Deviation (mm),              Vertical Std. Deviation (mm), Quality,
2006-04-22,0.00, 0.00, 0.00, 2.09, 1.60, 7.12, repro,
2006-04-24,0.27, 0.18, 7.31, 2.10, 1.62, 7.20, repro,
2006-04-25,-1.29, -1.08, 9.61, 2.13, 1.64, 7.29, repro,
2006-04-26,-2.14, -1.87, 9.34, 2.08, 1.60, 7.09, repro,
2006-04-27,-0.91, -2.21, 5.70, 2.13, 1.64, 7.25, repro,
2006-04-28,-0.84, -1.20, -1.21, 2.17, 1.69, 7.49, repro,
2006-04-29,-1.25, -1.61, -3.48, 2.09, 1.61, 7.19, repro,
2006-05-02,-0.25, -0.51, 3.23, 2.17, 1.67, 7.29, repro,
2006-05-03,0.25, -0.61, 4.45, 2.16, 1.66, 7.28, repro,
2006-05-04,-0.26, -1.74, 9.02, 2.18, 1.69, 7.40, repro,
2006-05-05,0.49, -1.26, 10.04, 2.16, 1.67, 7.49, repro,
2006-05-06,-1.06, -1.04, 9.45, 2.16, 1.67, 7.47, repro,
2006-05-07,-0.96, -1.31, 7.17, 2.28, 1.78, 7.83, repro,
2006-05-08,-3.00, 0.09, 9.63, 3.14, 2.45, 10.53, repro,
2006-05-09,-0.56, -0.24, 13.38, 2.82, 2.31, 10.23, repro,
2006-05-10,-1.12, 0.06, 12.25, 2.24, 1.74, 7.72, repro,
2006-05-11,-0.12, 0.61, 11.97, 2.15, 1.67, 7.42, repro,
2006-05-12,1.66, 0.37, 10.01, 2.26, 1.80, 8.06, repro,
2006-05-13,-0.92, -0.94, 15.20, 2.22, 1.71, 7.76, repro,
2006-05-14,-1.52, -0.80, 2.45, 2.45, 1.91, 8.41, repro,
2006-05-15,-1.38, -0.93, -4.53, 2.37, 1.82, 8.07, repro,
2006-05-16,-0.52, 1.24, 15.21, 6.44, 5.42, 22.56, repro,
2006-05-17,-0.70, -0.08, 20.24, 2.29, 1.76, 7.75, repro,
2006-05-18,-0.12, 0.24, 18.18, 2.38, 1.83, 8.16, repro,
2006-05-19,-2.10, -0.28, 14.94, 2.28, 1.80, 7.87, repro,
2006-05-20,-1.86, -1.94, 17.38, 2.62, 2.04, 9.02, repro,
2006-05-21,-1.40, -0.94, 7.88, 2.44, 1.94, 8.66, repro,
2006-05-22,-2.41, -2.22, 8.92, 2.29, 1.78, 7.90, repro,
2006-05-23,-3.49, -1.58, 7.83, 2.23, 1.72, 7.69, repro,
2006-05-24,-0.43, -0.43, 5.55, 2.25, 1.77, 7.87, repro,
2006-05-25,-2.07, -0.88, 9.37, 2.25, 1.78, 7.73, repro,
2006-05-26,-1.87, 0.81, 20.17, 2.20, 1.75, 7.61, repro,
2006-05-27,-1.82, 0.67, 10.14, 2.46, 1.91, 8.42, repro,
2006-05-28,-1.22, 0.98, 5.84, 2.16, 1.68, 7.46, repro,
2006-05-29,-1.93, -0.57, 12.62, 2.21, 1.70, 7.64, repro,
2006-05-30,-1.24, -0.11, 1.83, 2.26, 1.83, 8.00, repro,
2006-05-31,-0.94, 2.01, 11.50, 2.33, 1.84, 8.05, repro,
2006-06-01,-0.15, 1.07, 6.38, 2.29, 1.75, 7.85, repro,
2006-06-02,-0.35, 0.73, 11.18, 2.21, 1.71, 7.62, repro,
2006-06-07,0.85, 7.52, -16.78, 10.79, 10.81, 50.88, repro,
2006-06-08,-0.59, -0.26, 12.31, 2.36, 1.84, 8.18, repro,
2006-06-09,0.02, -1.14, 2.57, 2.23, 1.72, 7.71, repro,
2006-06-10,-1.40, -0.34, 11.89, 2.19, 1.72, 7.67, repro,
2006-06-11,-2.71, -0.58, 10.42, 2.71, 2.09, 9.44, repro,
2006-06-12,-4.11, 1.27, 7.33, 3.26, 2.70, 11.99, repro,
2006-06-13,-1.37, -0.48, 11.14, 2.21, 1.75, 7.81, repro,
2006-06-14,0.56, -0.30, 6.66, 2.18, 1.69, 7.54, repro,
2006-06-15,-0.57, 1.08, 5.19, 2.24, 1.74, 7.72, repro,
2006-06-16,-0.86, 0.38, 8.44, 2.16, 1.70, 7.53, repro,
2006-06-17,-0.86, 2.37, 14.22, 2.15, 1.70, 7.48, repro,
2006-06-18,1.21, 4.26, 10.93, 2.53, 1.98, 8.90, repro,
2006-06-19,1.24, 1.03, 7.70, 4.25, 3.91, 18.43, repro,
2006-06-21,0.49, -4.88, 9.59, 6.03, 5.54, 26.58, repro,
2006-06-22,1.62, 3.31, 18.62, 2.27, 1.77, 7.76, repro,
2006-06-23,0.87, 0.78, 4.53, 2.48, 1.91, 8.42, repro,
2006-06-24,1.40, 1.16, 2.21, 2.21, 1.71, 7.60, repro,
2006-06-25,0.56, 1.21, 9.36, 2.21, 1.71, 7.57, repro,
2006-06-26,0.77, 1.45, 5.35, 2.19, 1.70, 7.51, repro,
2006-06-27,3.26, 3.85, 23.04, 3.33, 2.73, 11.71, repro,
2006-06-28,1.97, 0.92, 5.45, 2.24, 1.73, 7.61, repro,
2006-06-29,1.04, 2.43, 24.75, 2.26, 1.80, 7.85, repro,
2006-06-30,-0.68, 1.69, 18.06, 2.22, 1.74, 7.65, repro,
2006-07-01,-0.23, 1.52, 10.35, 2.20, 1.71, 7.53, repro,
2006-07-02,-0.91, -2.93, -3.58, 2.17, 1.71, 7.56, repro,
2006-07-03,1.17, 0.46, 5.75, 2.18, 1.69, 7.49, repro,
2006-07-04,2.04, 1.93, 13.38, 2.27, 1.75, 7.85, repro,
2006-07-05,1.66, 1.55, 7.78, 2.18, 1.70, 7.53, repro,
2006-07-06,0.45, 0.59, 2.79, 2.26, 1.76, 7.67, repro,
2006-07-07,0.45, 0.03, -1.48, 2.24, 1.75, 7.55, repro,
2006-07-08,1.05, 2.35, 3.72, 2.22, 1.70, 7.50, repro,
2006-07-09,2.15, 0.61, 13.46, 2.28, 1.76, 7.72, repro,
2006-07-10,2.00, 2.97, 11.66, 2.40, 1.85, 8.07, repro,
2006-07-11,1.03, 2.52, 15.53, 2.41, 1.82, 8.20, repro,
2006-07-12,-0.43, 0.47, -7.87, 2.36, 1.79, 7.91, repro,
2006-07-13,1.38, 0.93, 8.14, 2.30, 1.78, 7.71, repro,
2006-07-14,3.34, 1.65, 8.23, 2.31, 1.78, 7.81, repro,
2006-07-15,4.02, 1.48, 3.17, 2.32, 1.82, 7.94, repro,
2006-07-16,0.04, 0.70, 14.21, 2.31, 1.79, 7.78, repro,
2006-07-17,2.11, 0.71, 19.51, 2.52, 1.89, 8.39, repro,
2006-07-18,0.97, 3.09, 17.14, 2.34, 1.78, 7.79, repro,
2006-07-19,2.47, 0.34, 12.50, 2.29, 1.74, 7.64, repro,
2006-07-20,4.26, 1.89, -1.65, 2.34, 1.76, 7.76, repro,
2006-07-21,2.38, 1.65, 13.67, 2.48, 1.89, 8.37, repro,
2006-07-22,2.24, 0.13, 2.66, 2.31, 1.75, 7.78, repro,
2006-07-23,1.54, -1.23, 7.89, 2.39, 1.79, 8.07, repro,
2006-07-24,1.57, 1.00, 12.09, 2.92, 2.12, 9.38, repro,
2006-07-25,0.57, 0.73, 19.59, 2.33, 1.75, 7.74, repro,
2006-07-26,2.87, 4.14, 8.54, 2.36, 1.77, 7.87, repro,
2006-07-27,-0.56, -1.83, 16.55, 3.09, 2.48, 10.32, repro,
2006-07-28,3.35, 0.87, 4.52, 2.46, 1.84, 8.17, repro,
2006-07-29,-0.19, 0.23, 10.68, 2.45, 1.80, 8.07, repro,
2006-07-30,0.38, -0.17, 13.88, 2.99, 2.17, 9.45, repro,
2006-07-31,0.93, 2.16, 15.46, 2.32, 1.80, 8.15, repro,
2006-08-01,3.79, 3.05, 10.48, 2.70, 2.13, 9.50, repro,
2006-08-02,5.82, 0.15, 5.99, 2.22, 1.68, 7.64, repro,
2006-08-03,2.10, -0.87, 2.67, 2.65, 2.00, 9.05, repro,
2006-08-04,-0.04, 0.21, 15.10, 2.31, 1.78, 7.93, repro,
2006-08-05,0.72, 0.01, 10.91, 2.25, 1.67, 7.54, repro,
2006-08-06,0.61, 1.06, 5.09, 2.17, 1.64, 7.33, repro,
2006-08-07,1.70, 1.34, 23.23, 2.42, 1.93, 8.33, repro,
2006-08-08,0.47, -0.07, 2.43, 2.17, 1.65, 7.40, repro,
2006-08-09,-0.85, 0.01, 8.06, 2.79, 2.06, 9.25, repro,
2006-08-10,-0.53, -0.25, 6.42, 2.21, 1.67, 7.58, repro,
2006-08-11,-0.41, -0.21, 15.83, 2.13, 1.62, 7.22, repro,
2006-08-12,0.28, -0.89, 9.36, 2.19, 1.67, 7.49, repro,
2006-08-13,-0.25, -2.46, 11.88, 3.55, 2.53, 10.94, repro,
2006-08-14,-1.05, 0.07, 18.09, 2.24, 1.68, 7.61, repro,
2006-08-15,-0.38, -0.97, 32.02, 3.16, 2.36, 10.34, repro,
2006-08-16,-0.47, -0.57, 10.37, 2.22, 1.66, 7.45, repro,
2006-08-17,0.26, 0.71, 6.00, 2.17, 1.68, 7.44, repro,
2006-08-18,-0.38, 0.59, 4.96, 2.27, 1.70, 7.66, repro,
2006-08-19,0.23, 1.43, 19.75, 2.23, 1.69, 7.52, repro,
2006-08-20,0.75, -0.11, 16.87, 2.32, 1.76, 7.89, repro,
2006-08-21,-1.34, -1.93, 4.09, 2.14, 1.64, 7.29, repro,
2006-08-22,-0.91, 1.29, 11.87, 2.16, 1.64, 7.36, repro,
2006-08-23,-1.54, 1.51, 11.04, 2.15, 1.64, 7.33, repro,
2006-08-24,0.24, -1.15, 7.69, 2.23, 1.66, 7.54, repro,
2006-08-25,0.51, 1.27, 3.91, 2.25, 1.68, 7.62, repro,
2006-08-26,-0.43, 2.11, 5.36, 2.46, 1.86, 8.42, repro,
2006-08-27,-0.60, 1.49, 13.44, 2.29, 1.72, 7.81, repro,
2006-08-28,0.17, 1.17, 15.27, 2.28, 1.70, 7.69, repro,
2006-08-29,-1.75, -0.09, 16.69, 2.29, 1.71, 7.77, repro,
2006-08-30,0.06, 0.47, 8.65, 2.27, 1.68, 7.65, repro,
2006-08-31,-1.22, 0.27, 5.38, 2.26, 1.68, 7.55, repro,
2006-09-01,-0.05, -0.16, 4.25, 2.27, 1.69, 7.61, repro,
2006-09-02,-1.03, 0.67, 4.97, 2.36, 1.73, 7.84, repro,
2006-09-03,-0.75, 0.12, 10.98, 2.28, 1.70, 7.67, repro,
2006-09-04,-0.39, -1.30, 5.26, 2.31, 1.71, 7.76, repro,
2006-09-05,-1.17, -0.36, 8.65, 2.31, 1.71, 7.83, repro,
2006-09-06,1.64, -2.50, -0.05, 2.28, 1.70, 7.64, repro,
2006-09-07,-0.55, 1.75, 14.00, 2.43, 1.78, 8.01, repro,
2006-09-08,-0.62, 0.39, 11.21, 2.33, 1.73, 7.80, repro,
2006-09-09,0.99, -0.71, 12.90, 2.20, 1.67, 7.50, repro,
2006-09-10,-2.85, 0.32, 9.15, 2.18, 1.65, 7.44, repro,
2006-09-11,-0.51, -0.36, 3.70, 2.22, 1.66, 7.52, repro,
2006-09-12,-0.54, -0.52, 4.46, 2.21, 1.66, 7.51, repro,
2006-09-13,-0.89, -0.11, 11.06, 2.21, 1.67, 7.51, repro,
2006-09-14,-0.57, -0.79, 9.63, 2.21, 1.71, 7.61, repro,
2006-09-15,-0.79, -1.56, 10.39, 2.19, 1.69, 7.50, repro,
2006-09-16,-1.06, -0.02, 10.70, 2.15, 1.62, 7.29, repro,
2006-09-17,-0.46, 0.04, 12.31, 2.17, 1.64, 7.39, repro,
2006-09-18,-0.58, 0.43, 10.70, 2.23, 1.67, 7.60, repro,
2006-09-19,2.79, 1.58, 10.01, 2.24, 1.66, 7.52, repro,
2006-09-20,0.83, 0.19, 12.69, 2.15, 1.63, 7.35, repro,
2006-09-21,-1.37, 0.18, 14.51, 2.21, 1.65, 7.45, repro,
2006-09-22,-1.51, 0.30, 15.35, 2.26, 1.68, 7.62, repro,
2006-09-23,0.55, 0.69, 16.87, 2.20, 1.67, 7.50, repro,
2006-09-24,-0.46, -1.76, 1.51, 2.43, 1.82, 8.11, repro,
2006-09-25,-0.38, -0.68, 12.96, 2.15, 1.64, 7.37, repro,
2006-09-26,-1.54, -2.03, 8.93, 2.31, 1.81, 8.03, repro,
2006-09-27,-1.33, -1.48, 11.47, 2.25, 1.69, 7.70, repro,
2006-09-28,-0.64, 1.00, 13.78, 2.31, 1.70, 7.85, repro,
2006-09-29,-0.48, -0.13, 12.41, 2.30, 1.70, 7.79, repro,
2006-09-30,-0.47, -0.57, 4.79, 2.17, 1.64, 7.38, repro,
2006-10-01,-2.82, -0.24, 8.35, 2.28, 1.68, 7.73, repro,
2006-10-02,-0.71, -0.22, 2.01, 2.32, 1.72, 7.84, repro,
2006-10-03,-1.14, -1.39, 8.22, 2.32, 1.72, 7.77, repro,
2006-10-04,-0.64, 0.20, 6.49, 2.24, 1.68, 7.54, repro,
2006-10-05,-1.02, -0.88, -2.15, 2.18, 1.64, 7.39, repro,
2006-10-06,-1.54, -0.42, 0.75, 2.21, 1.65, 7.47, repro,
2006-10-07,-0.79, -1.07, -4.01, 2.37, 1.76, 8.01, repro,
2006-10-08,-1.93, -0.99, 5.37, 2.31, 1.74, 7.79, repro,
2006-10-09,-0.55, -1.34, 1.56, 2.41, 1.80, 8.11, repro,
2006-10-10,-1.56, -0.90, 10.10, 2.24, 1.66, 7.51, repro,
2006-10-11,-3.05, 1.06, 18.02, 2.25, 1.74, 7.73, repro,
2006-10-12,-3.69, -1.13, 23.13, 2.18, 1.64, 7.40, repro,
2006-10-13,-2.57, -0.54, 17.02, 2.19, 1.63, 7.38, repro,
2006-10-14,-0.47, -2.98, 7.55, 7.68, 4.85, 21.16, repro,
2006-10-15,-1.16, -0.29, 12.93, 2.36, 1.78, 8.23, repro,
2006-10-16,-1.64, -1.09, 9.04, 2.25, 1.65, 7.57, repro,
2006-10-17,-1.44, -0.29, 10.60, 2.20, 1.63, 7.43, repro,
2006-10-18,-0.28, 0.19, 15.94, 2.20, 1.61, 7.35, repro,
2006-10-19,0.55, -0.31, 15.66, 2.42, 1.69, 7.92, repro,
2006-10-20,-6.39, -0.12, 14.86, 2.50, 1.79, 8.26, repro,
2006-10-21,-2.26, -1.94, 10.68, 2.34, 1.70, 7.76, repro,
2006-10-22,0.36, -1.36, 1.59, 2.29, 1.69, 7.64, repro,
2006-10-23,-1.02, -1.06, 10.16, 2.58, 1.87, 8.47, repro,
2006-10-24,-2.83, -0.61, 9.89, 2.58, 1.82, 8.30, repro,
2006-10-25,-0.68, -1.01, 3.86, 2.45, 1.70, 7.93, repro,
2006-10-26,-2.80, -1.73, 6.51, 2.35, 1.67, 7.79, repro,
2006-10-27,-2.50, -0.86, 4.47, 2.27, 1.66, 7.67, repro,
2006-10-28,0.04, 1.01, 14.99, 2.24, 1.65, 7.53, repro,
2006-10-29,-5.56, -1.85, 18.54, 2.22, 1.63, 7.49, repro,
2006-10-30,-2.80, -0.95, 8.35, 2.20, 1.61, 7.36, repro,
2006-10-31,-2.35, -1.88, 4.93, 2.26, 1.65, 7.51, repro,
2006-11-01,-1.38, -1.09, 11.24, 2.32, 1.67, 7.66, repro,
2006-11-02,-0.17, -2.02, 0.56, 2.39, 1.73, 7.88, repro,
2006-11-03,-2.90, 0.19, 4.59, 2.42, 1.78, 8.03, repro,
2006-11-04,-1.46, -0.64, -10.11, 2.47, 1.80, 8.25, repro,
2006-11-05,-2.81, -1.59, 0.14, 2.56, 1.90, 8.43, repro,
2006-11-06,-2.39, -0.09, 2.36, 2.16, 1.61, 7.27, repro,
2006-11-07,-0.06, 0.05, 3.05, 2.32, 1.71, 7.90, repro,
2006-11-08,-0.05, 1.42, 18.18, 2.25, 1.67, 7.68, repro,
2006-11-09,-0.01, -0.95, 13.64, 2.41, 1.76, 8.06, repro,
2006-11-10,-0.49, -1.49, 6.94, 2.21, 1.64, 7.53, repro,
2006-11-11,-2.50, -1.11, 7.21, 2.25, 1.66, 7.61, repro,
2006-11-12,-1.43, -0.86, -2.12, 2.39, 1.76, 8.01, repro,
2006-11-13,-4.02, -0.62, 0.87, 2.47, 1.87, 8.50, repro,
2006-11-14,-1.77, 0.20, 10.01, 2.24, 1.67, 7.52, repro,
2006-11-15,-1.56, -0.38, 10.82, 2.16, 1.60, 7.23, repro,
2006-11-16,-0.58, -1.16, 2.43, 2.18, 1.61, 7.32, repro,
2006-11-17,-0.97, 0.74, 17.52, 2.42, 1.83, 8.05, repro,
2006-11-18,-2.18, -1.63, 2.25, 2.17, 1.62, 7.29, repro,
2006-11-19,-2.02, -1.71, 1.05, 2.14, 1.59, 7.14, repro,
2006-11-20,-2.01, -2.01, -1.36, 2.14, 1.58, 7.11, repro,
2006-11-21,-2.14, -1.73, -4.34, 2.14, 1.58, 7.11, repro,
2006-11-22,-3.59, -1.87, 0.88, 2.15, 1.61, 7.20, repro,
2006-11-23,-2.23, -1.68, -7.14, 2.21, 1.64, 7.32, repro,
2006-11-24,-3.61, -1.94, -2.51, 2.22, 1.64, 7.36, repro,
2006-11-25,-4.22, -1.34, 1.95, 2.15, 1.60, 7.18, repro,
2006-11-26,-0.81, 1.34, 2.67, 2.16, 1.62, 7.24, repro,
2006-11-27,-2.13, 0.80, -3.11, 2.32, 1.77, 8.02, repro,
2006-11-28,-2.48, -0.29, 6.40, 2.16, 1.63, 7.29, repro,
2006-11-29,-1.10, 1.88, 8.30, 2.17, 1.62, 7.30, repro,
2006-11-30,-3.63, -2.37, 0.02, 2.17, 1.61, 7.27, repro,
2006-12-01,0.44, -1.66, -3.78, 2.60, 1.99, 8.74, repro,
2006-12-02,-3.46, -3.91, 0.18, 2.16, 1.60, 7.18, repro,
2006-12-03,-2.37, -2.05, -6.82, 2.15, 1.62, 7.23, repro,
2006-12-04,-1.51, -1.21, -5.40, 2.17, 1.64, 7.26, repro,
2006-12-05,-0.96, -0.67, -7.42, 2.24, 1.65, 7.38, repro,
2006-12-06,-1.81, -2.22, 1.86, 2.23, 1.64, 7.31, repro,
2006-12-07,-1.77, -0.92, -2.09, 2.21, 1.64, 7.31, repro,
2006-12-08,-0.87, -1.80, -7.75, 2.24, 1.66, 7.42, repro,
2006-12-09,-0.64, -1.44, -0.37, 2.16, 1.66, 7.33, repro,
2006-12-10,-2.57, -1.11, 2.14, 2.23, 1.67, 7.45, repro,
2006-12-11,-0.56, -0.94, -2.31, 2.15, 1.62, 7.22, repro,
2006-12-12,-1.43, -0.12, 0.88, 2.18, 1.65, 7.29, repro,
2006-12-13,-2.26, -1.37, 8.56, 2.15, 1.61, 7.18, repro,
2006-12-14,-2.36, 0.02, 12.91, 2.20, 1.64, 7.35, repro,
2006-12-15,-2.89, -2.19, 7.68, 2.23, 1.66, 7.54, repro,
2006-12-16,-1.48, -2.30, 6.04, 2.28, 1.72, 7.65, repro,
2006-12-17,-1.22, -1.50, 2.15, 2.24, 1.68, 7.45, repro,
2006-12-18,-0.73, 0.22, 2.95, 2.22, 1.70, 7.53, repro,
2006-12-19,-1.19, -2.24, 4.78, 2.30, 1.71, 7.65, repro,
2006-12-20,-0.82, -0.46, 6.05, 2.21, 1.71, 7.59, repro,
2006-12-21,-0.95, -1.01, 5.80, 2.14, 1.61, 7.21, repro,
2006-12-22,-1.64, 0.65, 5.05, 2.27, 1.74, 7.78, repro,
2006-12-23,-0.56, -0.86, 9.91, 2.13, 1.60, 7.15, repro,
2006-12-24,-1.15, -2.14, 6.23, 2.14, 1.60, 7.20, repro,
2006-12-25,-1.14, -1.51, 7.20, 2.19, 1.63, 7.37, repro,
2006-12-26,-1.82, 0.73, 10.27, 2.31, 1.75, 7.97, repro,
2006-12-27,-1.54, -1.18, 11.52, 2.28, 1.75, 7.78, repro,
2006-12-28,-3.47, -1.13, 4.55, 2.28, 1.74, 7.74, repro,
2006-12-29,-3.09, -2.70, -6.43, 2.37, 1.79, 8.07, repro,
2006-12-30,-2.54, -1.08, -3.44, 2.29, 1.75, 7.83, repro,
2006-12-31,-2.33, -1.10, -1.77, 2.29, 1.76, 7.89, repro,
2007-01-01,-0.79, -1.39, 2.21, 2.37, 1.80, 8.14, repro,
2007-01-02,-1.68, -0.67, 4.07, 2.24, 1.69, 7.53, repro,
2007-01-03,-1.82, -0.52, 13.00, 2.22, 1.62, 7.29, repro,
2007-01-04,-2.41, 0.87, 15.90, 2.24, 1.64, 7.38, repro,
2007-01-05,-3.35, -0.86, 15.19, 2.17, 1.60, 7.25, repro,
2007-01-06,0.32, 1.11, 7.41, 2.17, 1.59, 7.24, repro,
2007-01-07,-1.79, -1.25, 5.59, 2.21, 1.61, 7.41, repro,
2007-01-08,-1.02, 0.87, 10.21, 2.21, 1.61, 7.39, repro,
2007-01-09,-1.73, -0.72, 16.02, 2.13, 1.58, 7.16, repro,
2007-01-10,-1.24, -1.37, 4.12, 2.17, 1.62, 7.38, repro,
2007-01-11,-3.13, -1.39, 2.76, 2.21, 1.66, 7.56, repro,
2007-01-12,-2.19, -0.61, 7.34, 2.14, 1.59, 7.22, repro,
2007-01-13,-1.28, -2.14, -0.37, 2.13, 1.56, 7.11, repro,
2007-01-14,-1.63, -2.03, 0.83, 2.13, 1.57, 7.19, repro,
2007-01-15,-2.54, -2.52, 1.81, 2.11, 1.55, 7.10, repro,
2007-01-16,-3.93, -3.38, -1.72, 2.12, 1.58, 7.16, repro,
2007-01-17,-5.17, -4.39, -5.72, 2.48, 1.72, 8.08, repro,
2007-01-18,-4.38, -3.41, -5.31, 2.21, 1.59, 7.36, repro,
2007-01-19,-3.12, -3.02, 3.23, 2.16, 1.62, 7.31, repro,
2007-01-20,-3.45, -5.01, -3.24, 2.16, 1.62, 7.30, repro,
2007-01-21,-4.58, -4.70, -4.54, 2.11, 1.55, 7.07, repro,
2007-01-22,-3.32, -4.88, -0.58, 2.11, 1.55, 7.08, repro,
2007-01-23,-4.59, -4.22, -4.76, 2.52, 1.85, 8.43, repro,
2007-01-24,-3.54, -3.72, -4.05, 2.12, 1.56, 7.09, repro,
2007-01-25,-2.96, -4.88, -7.39, 2.13, 1.62, 7.29, repro,
2007-01-26,-5.27, -5.81, -4.33, 2.16, 1.65, 7.38, repro,
2007-01-27,-3.46, -4.89, -2.68, 2.20, 1.68, 7.54, repro,
2007-01-28,-3.09, -4.35, 0.88, 2.09, 1.56, 7.01, repro,
2007-01-29,-3.76, -5.19, -2.22, 2.17, 1.63, 7.34, repro,
2007-01-30,-3.03, -5.07, -5.03, 2.12, 1.61, 7.21, repro,
2007-01-31,-3.38, -3.69, -0.34, 2.12, 1.59, 7.14, repro,
2007-02-01,-0.95, -2.14, -1.76, 2.19, 1.62, 7.34, repro,
2007-02-02,-1.33, -2.51, 4.05, 2.21, 1.68, 7.55, repro,
2007-02-03,-1.97, -3.28, 0.22, 2.20, 1.67, 7.47, repro,
2007-02-04,-1.74, -3.69, -1.84, 2.23, 1.69, 7.60, repro,
2007-02-05,-2.84, -2.59, -0.74, 2.12, 1.61, 7.20, repro,
2007-02-06,-2.40, -2.36, -6.89, 2.27, 1.81, 7.87, repro,
2007-02-07,-3.35, -2.88, 1.32, 2.23, 1.74, 7.71, repro,
2007-02-08,-2.80, -2.16, 1.25, 2.35, 1.79, 7.98, repro,
2007-02-09,-1.90, -2.87, -2.17, 2.25, 1.69, 7.59, repro,
2007-02-10,-0.70, -2.04, -0.54, 2.19, 1.68, 7.49, repro,
2007-02-11,-1.30, -2.75, 0.98, 2.19, 1.70, 7.55, repro,
2007-02-12,-1.99, -2.77, -0.18, 2.16, 1.64, 7.36, repro,
2007-02-13,-1.50, -3.00, -7.48, 2.23, 1.71, 7.64, repro,
2007-02-14,-0.81, -2.80, -5.18, 2.13, 1.60, 7.18, repro,
2007-02-15,-1.16, -2.53, 3.28, 2.11, 1.63, 7.18, repro,
2007-02-16,-3.26, -2.26, 8.72, 2.14, 1.64, 7.27, repro,
2007-02-17,-1.51, -1.03, 6.71, 2.19, 1.67, 7.52, repro,
2007-02-18,-0.82, -1.75, 3.55, 2.14, 1.65, 7.34, repro,
2007-02-19,-1.07, -1.70, 3.28, 2.15, 1.66, 7.38, repro,
2007-02-20,-1.29, -0.60, 7.96, 2.24, 1.70, 7.52, repro,
2007-02-21,-2.00, -3.55, 4.72, 3.44, 2.69, 12.25, repro,
2007-02-22,-1.65, -0.87, -0.45, 2.07, 1.57, 6.99, repro,
2007-02-23,-1.42, -3.03, -6.35, 2.09, 1.57, 7.05, repro,
2007-02-24,-2.39, -2.23, -2.21, 2.09, 1.57, 7.00, repro,
2007-02-25,-2.42, -2.29, 1.53, 2.07, 1.56, 6.97, repro,
2007-02-26,-1.32, -1.03, -2.61, 2.09, 1.57, 7.03, repro,
2007-02-27,-1.43, -0.46, -2.95, 2.06, 1.57, 6.99, repro,
2007-02-28,-1.58, -0.96, -4.49, 2.10, 1.57, 7.04, repro,
2007-03-01,-1.66, -1.15, -4.00, 2.20, 1.62, 7.32, repro,
2007-03-02,-0.02, 0.20, 6.14, 2.18, 1.60, 7.24, repro,
2007-03-03,-0.16, -1.04, -0.09, 2.12, 1.59, 7.07, repro,
2007-03-04,-1.32, -1.14, 5.60, 2.11, 1.59, 7.05, repro,
2007-03-05,-1.99, -2.14, 1.63, 2.12, 1.60, 7.13, repro,
2007-03-06,-2.29, -3.42, -8.33, 2.16, 1.61, 7.20, repro,
2007-03-07,-3.86, -2.90, -6.82, 2.16, 1.62, 7.30, repro,
2007-03-08,-2.91, -2.44, -3.99, 2.13, 1.60, 7.14, repro,
2007-03-09,-2.43, -2.23, -5.74, 2.12, 1.59, 7.08, repro,
2007-03-10,-1.90, -1.60, -4.17, 2.20, 1.67, 7.46, repro,
2007-03-11,-1.45, -2.81, -5.61, 2.15, 1.61, 7.18, repro,
2007-03-12,-1.43, -0.55, -0.44, 2.19, 1.62, 7.22, repro,
2007-03-13,-1.32, 0.66, 4.02, 2.12, 1.61, 7.15, repro,
2007-03-14,-2.77, -2.16, 10.02, 2.09, 1.58, 7.04, repro,
2007-03-15,-0.59, -1.95, -1.49, 2.19, 1.62, 7.35, repro,
2007-03-16,-1.40, -1.77, -4.98, 2.19, 1.63, 7.38, repro,
2007-03-17,-1.75, -1.40, -1.60, 2.09, 1.58, 7.08, repro,
2007-03-18,-1.15, -1.84, -4.40, 2.12, 1.61, 7.18, repro,
2007-03-19,-2.87, -0.90, -1.47, 2.12, 1.61, 7.17, repro,
2007-03-20,-0.09, -0.50, -10.92, 2.16, 1.67, 7.49, repro,
2007-03-21,-0.77, -0.31, -11.76, 2.22, 1.71, 7.64, repro,
2007-03-22,-3.26, -3.04, 2.09, 2.14, 1.62, 7.25, repro,
2007-03-23,-1.00, -0.88, 0.02, 2.12, 1.61, 7.13, repro,
2007-03-24,-1.13, -0.68, -3.59, 2.12, 1.61, 7.13, repro,
2007-03-25,-1.61, -0.33, -3.12, 2.06, 1.58, 6.99, repro,
2007-03-26,0.43, 1.08, 0.46, 2.14, 1.64, 7.31, repro,
2007-03-27,-1.76, -1.04, 6.03, 2.20, 1.70, 7.43, repro,
2007-03-28,-0.72, -0.46, -5.25, 2.68, 2.07, 9.02, repro,
2007-03-29,-2.05, -0.67, -4.05, 2.15, 1.64, 7.30, repro,
2007-03-30,-0.28, -2.01, -9.54, 2.08, 1.59, 7.06, repro,
2007-03-31,-2.71, -1.41, 0.70, 2.07, 1.58, 6.99, repro,
2007-04-01,-1.06, -0.13, 5.11, 2.12, 1.61, 7.13, repro,
2007-04-02,-0.99, -0.24, 5.48, 2.09, 1.59, 7.05, repro,
2007-04-03,-0.74, -1.25, 5.96, 2.17, 1.63, 7.19, repro,
2007-04-04,-1.48, 0.43, -1.74, 2.10, 1.62, 7.13, repro,
2007-04-05,-1.00, -0.63, 5.51, 2.13, 1.62, 7.13, repro,
2007-04-06,-1.08, -1.59, 1.45, 2.28, 1.73, 7.58, repro,
2007-04-07,-1.55, -0.98, 7.16, 2.10, 1.61, 7.07, repro,
2007-04-08,-1.83, -1.42, 9.22, 2.10, 1.62, 7.15, repro,
2007-04-09,-1.81, -1.38, 4.90, 2.15, 1.64, 7.30, repro,
2007-04-10,-2.40, -1.56, 3.92, 2.13, 1.65, 7.28, repro,
2007-04-11,-1.11, 0.02, 9.14, 2.11, 1.61, 7.12, repro,
2007-04-12,0.73, 1.29, 14.17, 2.12, 1.65, 7.29, repro,
2007-04-13,-1.33, -0.18, 4.90, 2.09, 1.62, 7.14, repro,
2007-04-14,-2.74, -0.59, 7.67, 2.34, 1.82, 8.07, repro,
2007-04-15,-1.22, 0.04, 5.79, 2.09, 1.64, 7.18, repro,
2007-04-16,-2.99, -0.52, 15.99, 2.07, 1.59, 6.98, repro,
2007-04-17,-1.40, -1.20, 10.55, 2.07, 1.60, 7.03, repro,
2007-04-18,-1.15, -0.73, 3.57, 2.10, 1.62, 7.09, repro,
2007-04-19,-1.11, -0.52, 3.75, 2.05, 1.59, 6.95, repro,
2007-04-20,-0.76, -0.62, 4.03, 2.06, 1.59, 6.97, repro,
2007-04-21,-0.98, -0.35, 0.92, 2.05, 1.59, 6.96, repro,
2007-04-22,-1.44, 0.58, 5.60, 2.05, 1.60, 7.00, repro,
2007-04-23,-1.44, -0.51, 10.85, 2.10, 1.63, 7.22, repro,
2007-04-24,-0.17, -1.33, 6.54, 2.11, 1.66, 7.31, repro,
2007-04-25,-0.99, 0.23, 2.81, 2.08, 1.62, 7.11, repro,
2007-04-26,-2.21, 1.14, 3.98, 2.04, 1.60, 6.98, repro,
2007-04-27,0.52, 4.58, 10.78, 2.07, 1.61, 7.08, repro,
2007-04-28,-0.39, 0.70, 12.03, 2.06, 1.60, 7.04, repro,
2007-04-29,-1.47, 0.70, 4.90, 2.05, 1.59, 6.98, repro,
2007-04-30,-0.34, 0.51, 10.89, 2.03, 1.59, 6.96, repro,
2007-05-01,-0.28, -0.01, 6.45, 2.09, 1.64, 7.16, repro,
2007-05-02,-0.19, 0.61, -1.18, 2.07, 1.65, 7.15, repro,
2007-05-03,-0.62, -0.09, -0.85, 2.06, 1.64, 7.13, repro,
2007-05-04,-0.30, 0.13, -3.17, 2.05, 1.60, 7.02, repro,
2007-05-05,-1.51, 0.40, 6.51, 2.05, 1.60, 7.02, repro,
2007-05-06,0.17, 0.23, -5.06, 2.06, 1.60, 7.01, repro,
2007-05-07,-0.95, -0.16, 0.13, 2.03, 1.60, 6.99, repro,
2007-05-08,-1.14, 1.04, 6.85, 2.06, 1.62, 7.14, repro,
2007-05-09,-1.18, 0.74, 12.64, 2.05, 1.60, 7.02, repro,
2007-05-10,-1.26, 0.88, 8.15, 2.15, 1.68, 7.41, repro,
2007-05-11,-0.69, 1.44, 8.43, 2.14, 1.67, 7.37, repro,
2007-05-12,-0.16, -0.74, 2.77, 2.04, 1.59, 6.97, repro,
2007-05-13,-0.32, -0.23, -0.90, 2.04, 1.60, 6.97, repro,
2007-05-14,-3.11, 0.26, 6.91, 2.09, 1.62, 7.08, repro,
2007-05-15,-0.23, 0.20, 4.93, 2.06, 1.62, 7.07, repro,
2007-05-16,-2.58, -1.94, 10.53, 2.08, 1.62, 7.13, repro,
2007-05-17,-2.53, -0.13, 6.48, 2.13, 1.66, 7.26, repro,
2007-05-18,0.16, 0.13, -2.44, 2.09, 1.69, 7.27, repro,
2007-05-19,-2.11, -0.34, -0.51, 2.04, 1.62, 7.00, repro,
2007-05-20,-0.06, 0.20, 2.27, 2.05, 1.61, 7.03, repro,
2007-05-21,-1.91, -0.50, 3.53, 2.11, 1.63, 7.19, repro,
2007-05-22,-0.58, 0.99, -3.91, 2.06, 1.61, 7.00, repro,
2007-05-23,-1.45, 0.90, 2.28, 2.09, 1.65, 7.20, repro,
2007-05-24,1.73, 0.90, -1.46, 2.11, 1.71, 7.41, repro,
2007-05-25,-0.16, 1.49, 6.89, 2.05, 1.61, 7.02, repro,
2007-05-26,1.41, 1.05, 4.85, 2.11, 1.67, 7.32, repro,
2007-05-27,0.51, 0.99, 4.67, 2.10, 1.65, 7.23, repro,
2007-05-28,-0.63, -0.16, 3.82, 2.10, 1.64, 7.15, repro,
2007-05-29,0.49, 1.15, -1.68, 2.09, 1.65, 7.18, repro,
2007-05-30,0.68, 0.72, 5.24, 2.08, 1.63, 7.13, repro,
2007-05-31,2.12, 2.82, -1.41, 2.13, 1.67, 7.32, repro,
2007-06-01,2.93, 2.53, 4.40, 2.12, 1.66, 7.30, repro,
2007-06-02,0.14, 1.42, 13.58, 2.12, 1.69, 7.41, repro,
2007-06-03,0.32, 1.21, 0.27, 2.23, 1.77, 7.76, repro,
2007-06-04,2.72, 0.96, 12.07, 2.12, 1.66, 7.31, repro,
2007-06-05,2.66, 2.37, 28.31, 2.16, 1.71, 7.54, repro,
2007-06-06,-0.11, 0.24, 5.05, 2.11, 1.64, 7.20, repro,
2007-06-07,-2.30, 1.17, 11.73, 2.09, 1.64, 7.20, repro,
2007-06-08,3.24, 3.15, 15.08, 2.11, 1.65, 7.20, repro,
2007-06-09,1.38, 0.52, -1.64, 2.34, 1.79, 7.96, repro,
2007-06-10,0.45, -0.01, 1.97, 2.06, 1.61, 7.03, repro,
2007-06-11,1.26, 1.34, 5.05, 2.24, 1.67, 7.48, repro,
2007-06-12,1.67, 0.47, 6.05, 2.15, 1.64, 7.21, repro,
2007-06-13,1.03, 2.17, 6.01, 2.14, 1.67, 7.32, repro,
2007-06-14,1.32, 1.31, -0.45, 2.16, 1.67, 7.32, repro,
2007-06-15,1.22, 0.28, 5.65, 2.10, 1.64, 7.17, repro,
2007-06-16,-0.14, 1.99, 0.14, 2.18, 1.68, 7.39, repro,
2007-06-17,1.05, 2.43, 18.39, 2.33, 1.80, 7.92, repro,
2007-06-18,1.25, 0.54, 1.27, 2.03, 1.59, 6.96, repro,
2007-06-19,2.61, 2.33, 12.95, 2.03, 1.60, 7.01, repro,
2007-06-20,1.39, -0.33, 3.46, 2.21, 1.74, 7.75, repro,
2007-06-21,0.27, 1.36, 4.69, 2.09, 1.63, 7.18, repro,
2007-06-22,0.49, -0.76, 10.07, 2.13, 1.65, 7.33, repro,
2007-06-23,1.14, -0.86, 4.42, 2.04, 1.60, 7.04, repro,
2007-06-24,-0.29, 0.01, 5.63, 2.08, 1.63, 7.09, repro,